Find Starlink 3369

NORAD ID: 51142 Int'l Des: 2022-005 Owner: SPXS Country: US Constellation: starlink operational
LEOCIRCULAR

Live Position

Loading 3D Globe...

About Starlink 3369

Description loading...

Upcoming Passes

Passes for default location (London). Set your location on the main map for personalized predictions.

Altitude History

Loading altitude history...

Two-Line Element Set

1 51142U 22005AQ 26106.73327822 .00018684 00000-0 83245-3 0 9993
2 51142 53.2079 108.0089 0005245 12.1485 347.9638 15.21484681234766
Epoch: Apr 16, 2026 • Age: 19 hours

Current Status

Altitude 506.4 km
Velocity 7.62 km/s
Sub-Earth Point 41.75°N, 158.86°W
Launch Date Jan 19, 2022
Age 4.2 years
Type internet

Technical Details

Classification Payload
Mass 297.00 kg
Dry Mass 275.00 kg
Total Mass 297.00 kg
Length 0.20 m
Diameter 2.80 m
Span 9.00 m
Shape Box + pan
Manufacturer SPXS
Bus Type Starlink
Phase Status In Orbit
Owner/State SPXS/US

Most Searched